EHI
6 6 7 8 10 11 10 8 4 2 1 2 3 3 3 3 3 4 4 4 3 3 4 5 6 6 4 3 4 4 4 4 5 6 4 3 2 1 0 0 0 0 0
8 7 7 10 13 13 13 11 8 6 5 5 5 5 4 3 3 4 4 4 4 4 4 5 6 6 4 3 4 5 5 5 5 5 4 2 2 1 0 0 0 0 0
9 9 9 12 14 15 14 13 12 12 11 9 6 6 5 4 3 3 4 5 5 5 6 6 7 6 5 4 4 4 6 6 6 7 6 4 3 1 1 0 0 0 0
8 10 12 12 13 14 13 13 14 16 15 13 10 9 8 6 4 3 3 4 6 7 8 8 9 7 5 4 3 3 4 6 8 10 9 6 4 4 3 1 1 0 0
7 11 13 13 12 11 10 11 13 16 18 17 17 16 13 9 6 5 4 3 4 7 8 9 10 9 7 6 4 3 4 5 7 9 9 7 7 7 6 4 2 1 0
8 10 14 15 13 11 10 11 14 17 18 18 19 19 16 12 8 6 4 3 2 4 6 8 9 10 10 9 8 6 5 5 7 10 9 7 8 8 8 7 5 3 1
8 10 14 16 15 13 13 14 16 18 18 19 18 18 16 12 8 5 3 2 1 2 4 6 7 9 10 12 11 9 9 9 11 13 11 9 8 8 10 11 9 6 3
7 9 12 14 14 14 15 16 18 19 19 19 19 18 15 10 7 6 4 3 2 3 6 7 7 8 9 11 10 9 11 15 16 15 13 12 11 11 11 13 11 8 5
7 7 8 10 11 11 12 14 17 19 19 18 18 16 15 13 11 10 8 6 6 8 9 9 7 7 8 9 9 9 12 17 17 15 14 13 12 11 11 11 11 9 6
6 6 7 7 7 8 9 11 16 19 18 17 16 15 17 16 15 14 13 11 10 11 11 11 10 9 9 9 8 8 10 14 14 12 12 12 11 9 9 9 10 9 6
8 9 10 10 8 8 10 12 15 17 18 18 17 17 18 17 15 15 15 14 13 12 12 12 11 11 11 12 11 10 12 13 13 12 11 10 10 8 9 9 10 10 8
12 14 17 16 13 13 14 14 15 17 17 17 18 20 20 18 15 15 16 16 16 15 13 12 12 12 12 15 17 16 16 16 14 12 11 10 9 9 10 11 12 12 11
18 20 23 23 21 20 20 18 18 18 18 18 19 21 21 19 17 16 16 17 17 16 14 12 12 11 11 15 18 19 19 17 15 13 12 10 10 10 10 10 11 12 11
20 23 26 28 28 28 28 26 22 20 20 19 20 21 21 18 16 17 17 15 13 13 11 10 10 10 11 13 17 18 18 16 14 13 11 10 9 9 9 10 10 10 11
22 25 29 33 35 36 36 32 25 22 21 20 20 19 19 16 15 15 15 11 8 8 8 8 8 9 9 9 11 14 15 15 14 13 11 9 8 8 7 7 7 8 7
22 26 32 37 41 43 41 35 28 25 24 24 21 17 15 14 13 14 13 11 8 7 7 8 7 7 6 4 4 6 11 13 13 14 12 8 6 5 4 3 3 3 4
22 25 30 34 39 41 40 36 32 29 28 28 23 17 13 11 11 12 13 13 11 10 10 9 7 5 3 1 0 1 5 9 11 12 12 8 5 4 3 2 2 2 2
22 24 26 29 32 34 32 30 30 29 30 28 22 17 13 11 10 11 12 14 14 13 12 10 6 4 1 0 0 0 2 6 7 8 9 9 6 4 4 5 5 4 3
25 25 27 28 28 28 27 26 25 25 26 24 20 16 13 12 11 11 13 14 15 16 13 9 5 2 1 0 0 0 1 4 5 5 6 7 6 4 5 8 9 7 6
28 28 29 28 27 28 29 27 24 22 21 19 16 13 11 10 11 13 15 15 15 15 13 9 6 4 3 1 0 0 0 2 3 3 4 4 4 3 3 7 10 9 9
27 28 28 26 25 29 31 29 25 21 18 15 13 12 10 8 10 14 15 15 15 15 14 11 9 7 7 5 1 0 0 0 1 3 4 4 2 1 1 4 7 8 7
25 25 25 24 24 27 30 29 24 20 19 18 17 16 14 10 10 13 15 14 14 14 14 13 11 10 10 8 3 0 0 0 2 5 7 6 3 0 0 1 3 3 3
23 22 22 22 21 23 27 26 22 21 23 23 22 21 18 15 14 15 15 14 14 13 12 12 11 10 10 9 6 3 1 0 2 6 8 6 3 1 0 0 0 1 2
21 21 20 18 17 19 23 22 20 21 24 26 25 22 19 17 17 17 16 15 14 11 10 10 11 11 10 9 8 6 4 3 3 5 7 5 4 3 3 2 2 2 3
17 19 19 17 14 16 20 21 20 21 23 24 24 22 18 17 17 16 14 12 11 9 8 8 9 9 8 7 5 5 5 4 4 5 7 8 7 7 7 6 5 4 3
16 18 19 16 13 15 19 21 21 21 22 23 23 21 19 17 16 15 11 7 6 5 6 7 7 7 6 3 2 2 3 3 4 6 9 10 10 10 9 7 6 5 4
Wind_Speed
8 9 9 8 8 7 6 6 5 4 3 2 2 2 2 1 1 2 2 1 1 2 2 1 3 3 2 2 2 2 2 2 1 1 1 2 2 2 2 2 2 2 2
8 8 9 9 9 8 7 7 6 5 4 3 2 1 1 1 1 1 2 2 2 2 3 2 2 2 3 3 3 2 2 1 2 2 2 1 2 2 2 2 2 2 2
7 8 9 10 9 9 9 7 6 6 5 4 3 3 2 2 2 2 2 2 2 2 1 2 2 2 2 2 3 3 4 2 2 2 2 2 0 0 2 2 2 2 1
7 7 8 9 10 9 9 8 7 6 5 5 4 4 3 2 2 1 2 2 3 3 3 3 2 2 2 2 4 3 3 4 3 2 2 2 2 2 1 2 3 3 3
8 8 8 8 9 10 9 9 8 7 6 6 5 5 4 2 2 2 2 2 2 3 3 3 3 3 2 2 2 2 4 3 3 2 2 2 2 4 3 2 2 2 2
8 7 7 7 7 9 9 9 9 8 7 6 6 5 4 3 2 3 2 3 2 2 2 3 3 3 2 3 3 3 4 4 4 3 3 3 3 2 3 4 3 2 1
7 8 8 8 7 8 9 9 9 8 8 7 7 6 5 5 4 4 3 2 2 2 2 2 3 3 3 3 3 4 4 4 4 5 4 3 3 3 3 4 3 3 2
7 8 8 8 8 8 9 9 9 8 8 8 7 6 5 4 4 4 3 2 2 1 2 3 3 3 3 3 3 4 4 4 4 5 4 4 3 3 3 4 4 4 3
8 9 9 9 8 8 9 9 9 8 8 7 7 5 5 4 3 3 3 2 1 2 2 3 3 3 3 3 3 3 3 3 4 4 4 4 3 4 3 3 4 4 4
7 8 9 9 8 8 8 9 9 8 8 7 6 5 5 5 4 3 2 2 2 2 2 2 2 2 2 2 3 3 2 3 3 3 3 4 3 3 3 3 3 4 4
7 8 8 8 8 8 8 7 8 8 7 7 6 5 5 5 4 3 3 3 3 3 3 3 3 3 2 2 2 2 2 2 2 2 2 3 3 3 3 3 3 3 3
5 7 7 8 7 7 7 7 6 7 7 7 6 5 5 4 5 4 3 3 3 3 2 3 3 2 2 2 2 2 2 2 2 2 2 3 2 3 3 3 3 3 3
4 5 6 6 7 7 7 7 6 6 6 6 6 5 5 4 4 3 3 2 3 3 3 3 3 3 2 2 2 2 2 2 2 2 2 3 3 3 2 3 3 2 2
3 5 5 6 6 6 6 6 6 6 6 6 6 5 4 4 4 3 3 3 2 2 3 3 3 3 3 2 2 2 2 2 2 2 2 2 2 2 3 2 2 2 2
3 4 5 5 5 6 6 6 6 6 6 5 5 5 4 4 4 3 3 3 3 3 3 3 3 3 3 2 3 3 2 2 2 1 2 1 1 2 3 3 2 2 2
4 4 5 5 6 6 6 6 6 6 6 5 5 4 4 4 4 3 3 3 3 2 3 3 3 3 2 2 0 3 2 2 2 2 2 3 2 1 1 1 2 2 3
4 4 4 5 5 5 5 6 6 6 6 6 5 4 4 4 4 3 3 3 3 3 3 3 3 3 1 2 2 3 4 3 3 3 3 3 1 2 2 2 4 3 3
3 3 4 4 5 5 5 5 5 6 6 5 5 5 4 4 4 3 3 3 3 3 3 3 2 2 2 3 3 3 5 3 3 3 3 3 2 2 3 3 3 3 3
2 2 3 4 4 4 5 5 5 5 5 5 5 4 4 4 4 4 3 3 3 3 3 3 3 3 2 3 3 4 4 3 3 3 3 3 2 0 2 4 4 4 4
1 2 3 3 4 4 5 5 5 5 4 4 4 4 4 4 4 3 3 3 3 3 3 2 3 3 2 2 3 4 4 4 4 3 3 2 2 1 2 5 5 5 5
2 3 3 2 3 4 4 5 5 5 4 4 4 4 4 4 3 3 3 3 3 2 3 3 3 3 3 3 4 4 5 4 4 4 3 2 4 4 4 5 5 5 7
1 2 2 2 2 4 5 5 5 4 4 4 4 4 4 3 3 3 3 3 3 3 3 3 4 3 3 3 4 6 6 6 5 4 3 1 3 5 6 6 6 7 7
1 1 2 2 2 3 4 4 4 4 4 5 4 4 4 3 3 3 3 4 3 3 3 3 3 2 2 3 5 7 7 7 6 4 3 4 5 7 7 8 8 7 6
1 1 1 1 1 2 3 3 3 4 4 5 4 4 4 4 3 3 3 3 2 3 3 3 3 2 2 2 1 3 4 6 6 5 5 8 8 8 6 5 5 5 4
1 0 0 1 1 2 2 2 3 4 4 4 4 4 4 3 3 2 1 2 1 2 3 3 3 3 3 1 3 3 3 3 3 5 5 4 4 4 3 3 3 4 4
1 1 1 1 1 2 2 1 2 3 4 4 4 4 3 3 3 3 2 2 1 1 1 2 4 2 1 1 2 3 4 5 6 6 4 4 4 4 4 4 3 4 4
Wind_Direction
177 174 176 177 175 177 178 177 176 170 178 172 174 172 164 170 144 140 124 150 161 161 191 182 168 185 169 181 187 187 184 200 204 217 208 199 206 212 212 223 228 200 203
178 178 181 183 184 182 186 184 184 181 184 171 172 173 148 165 138 114 133 157 160 178 176 173 188 183 180 187 193 205 223 204 206 250 249 219 184 197 192 205 209 217 216
185 182 186 190 188 187 188 187 185 185 186 179 173 160 164 180 155 158 159 162 174 175 163 174 190 195 210 195 206 210 219 226 219 239 272 278 297 352 167 208 205 211 240
192 187 188 191 193 190 185 185 185 186 183 184 185 184 185 179 179 196 156 172 183 185 178 186 187 209 213 211 224 205 227 231 229 206 234 276 318 278 241 203 186 200 222
193 189 191 190 192 189 185 181 181 185 185 190 188 200 198 188 184 188 164 194 176 191 188 188 194 207 215 216 238 225 237 236 244 230 207 213 229 241 256 265 246 214 217
191 185 183 183 186 184 183 179 177 182 184 192 193 199 195 197 198 202 192 198 185 191 197 199 205 213 218 213 224 232 229 249 257 258 238 229 234 243 244 251 256 251 249
188 181 177 178 180 181 180 178 178 182 185 192 195 195 198 199 206 222 203 222 210 190 192 216 215 223 227 228 232 233 248 242 246 247 250 251 254 259 259 261 265 263 251
183 179 175 177 178 179 180 180 181 184 185 189 194 197 204 210 206 214 234 215 235 223 203 219 225 232 237 241 236 243 245 246 251 249 248 253 253 254 257 264 268 269 261
182 179 174 173 174 177 178 181 180 183 185 187 187 191 198 212 214 205 222 227 233 230 215 223 230 238 241 249 249 246 251 247 248 249 239 249 249 251 253 253 253 263 273
180 180 177 174 173 173 174 178 179 181 183 186 192 182 192 198 208 221 215 232 232 239 232 226 236 240 237 236 246 248 244 252 251 257 263 264 265 264 256 255 257 259 269
177 178 177 174 175 172 170 175 179 180 183 188 189 187 187 190 194 204 212 214 223 218 221 234 235 234 235 231 230 255 243 249 259 266 261 269 286 280 275 268 262 259 255
171 171 172 170 176 175 173 175 179 182 184 184 187 188 184 184 186 191 202 207 214 219 211 230 231 232 224 223 224 243 249 255 267 280 284 284 278 276 284 280 268 259 249
171 169 168 170 173 173 174 172 176 179 180 181 185 184 184 184 192 191 191 200 210 212 212 221 226 235 233 224 233 238 243 251 265 275 279 286 294 288 288 278 277 268 262
171 175 172 172 172 172 172 171 172 171 176 183 184 181 187 190 190 186 185 192 208 216 215 219 226 230 224 223 233 236 236 254 268 275 283 290 297 295 290 271 274 279 276
180 179 177 171 170 170 173 174 172 169 172 179 182 182 183 183 185 181 180 183 201 209 210 213 221 230 222 220 230 236 217 224 252 269 281 288 348 353 322 313 298 277 268
203 186 177 172 173 173 175 175 175 173 173 177 177 170 175 179 179 178 183 188 199 214 213 212 221 230 236 106 318 276 247 230 239 258 265 245 198 187 209 295 300 295 278
205 195 186 180 178 176 172 176 175 174 175 175 175 174 179 178 179 187 186 191 195 200 214 219 222 228 171 132 200 252 265 257 257 261 268 274 286 246 247 219 214 221 223
217 197 187 179 174 169 167 172 166 171 174 174 177 177 181 182 179 184 189 196 199 202 211 220 220 225 184 161 207 242 246 259 263 263 260 264 283 302 296 277 263 258 242
224 198 184 173 164 161 162 168 164 164 172 177 179 174 179 186 186 187 192 196 201 210 214 213 217 226 213 173 203 241 243 237 248 256 258 257 251 345 293 267 268 273 268
135 150 155 154 155 160 164 170 167 170 182 179 173 167 174 186 192 193 200 196 205 216 223 213 223 228 237 170 193 237 251 246 245 239 233 209 236 242 248 258 267 271 278
138 147 149 158 155 156 164 173 173 175 178 173 169 167 176 187 184 184 191 202 211 212 228 227 226 224 230 191 181 214 254 264 259 256 249 208 172 214 237 257 268 277 285
119 138 138 135 148 164 175 182 184 178 170 172 174 175 181 195 174 182 191 205 215 215 220 228 237 225 212 217 194 200 229 270 268 269 271 253 188 221 235 243 254 260 266
107 120 126 128 151 174 179 189 185 174 171 172 178 184 187 196 195 199 203 208 212 229 230 228 235 234 224 194 194 199 215 233 249 265 274 265 241 237 231 228 239 244 252
70 130 139 135 151 177 184 181 173 169 175 183 187 194 197 199 196 217 222 230 228 234 240 244 248 245 235 256 243 227 220 221 232 250 241 230 234 240 249 237 229 244 263
322 309 214 170 184 193 193 183 170 175 184 196 200 206 206 201 197 198 263 265 309 328 290 283 276 275 265 342 338 299 284 284 278 272 254 251 246 249 252 256 262 265 265
271 243 229 227 212 203 195 183 180 191 198 201 203 209 208 197 199 186 168 68 359 65 330 298 291 296 328 253 270 273 275 280 286 275 260 261 264 264 268 268 268 267 272